GW7384 Weather Reports


time (UTC)temp
C
wind
direction
speed
KPH
gust
KPH
rain 1hr
cm
rain 24hr
cm
rain mn
cm
humidity
%
barometer
mb
20260906145518 22 0.0 3.2 0.00 0.00 0.00 85 1020.9
20260906144518 22 113 1.6 8.0 0.00 0.00 0.00 85 1020.8
20260906143518 22 0.0 6.4 0.00 0.00 0.00 87 1020.7
20260906142518 22 113 1.6 6.4 0.00 0.00 0.00 88 1020.5
20260906141538 21 113 1.6 11.3 0.00 0.00 0.00 89 1020.5
20260906140558 21 113 1.6 8.0 0.00 0.00 0.00 89 1020.6
20260906135518 21 113 1.6 9.7 0.00 0.00 0.00 90 1020.6
20260906134518 20 0.0 3.2 0.00 0.00 0.00 90 1020.6
20260906133518 20 113 1.6 9.7 0.00 0.00 0.00 90 1020.7
20260906132518 20 113 1.6 4.8 0.00 0.00 0.00 91 1020.7
20260906131518 20 0.0 4.8 0.00 0.00 0.00 91 1020.5
20260906130518 20 113 1.6 6.4 0.00 0.00 0.00 92 1020.5
20260906125518 20 0.0 3.2 0.00 0.00 0.00 92 1020.5
20260906124518 20 90 1.6 4.8 0.00 0.00 0.00 92 1020.2
20260906123538 20 0.0 3.2 0.00 0.00 0.00 92 1020.2
20260906122518 20 113 1.6 4.8 0.00 0.00 0.00 93 1020.1
20260906121518 20 113 1.6 8.0 0.00 0.00 0.00 93 1020.1
20260906120518 20 0.0 3.2 0.00 0.00 0.00 93 1020.2
20260906115518 20 0.0 3.2 0.00 0.00 0.00 93 1020.2
20260906114518 20 0.0 1.6 0.00 0.00 0.00 93 1020.0
20260906113518 20 0.0 3.2 0.00 0.00 0.00 93 1020.0
20260906112518 20 0.0 1.6 0.00 0.00 0.00 93 1020.0
20260906111518 20 0.0 3.2 0.00 0.00 0.00 94 1020.0
20260906110538 20 0.0 0.0 0.00 0.00 0.00 94 1020.0
20260906105518 20 0.0 0.0 0.00 0.00 0.00 94 1019.9
20260906104558 20 113 1.6 9.7 0.00 0.00 0.00 94 1019.5
20260906103518 19 0.0 1.6 0.00 0.00 0.00 94 1019.3
20260906102518 19 0.0 1.6 0.00 0.00 0.00 94 1019.1
20260906101538 19 0.0 0.0 0.00 0.00 0.00 93 1019.2
20260906100518 20 0.0 1.6 0.00 0.00 0.00 93 1019.2
20260906095518 20 0.0 3.2 0.00 0.00 0.00 93 1019.0
20260906094518 20 0.0 4.8 0.00 0.00 0.00 93 1018.9
20260906093518 20 0.0 1.6 0.00 0.00 0.00 93 1018.9
20260906092518 20 0.0 8.0 0.00 0.00 0.00 93 1018.8
20260906091518 20 0.0 1.6 0.00 0.00 0.00 93 1018.6
20260906090518 20 0.0 3.2 0.00 0.00 0.00 93 1018.5
20260906085518 20 0.0 6.4 0.00 0.00 0.00 92 1018.4
20260906084518 20 0.0 1.6 0.00 0.00 0.00 92 1018.3
20260906083518 20 0.0 3.2 0.00 0.00 0.00 92 1018.7
20260906082538 20 0.0 3.2 0.00 0.00 0.00 92 1018.8
20260906081518 20 0.0 3.2 0.00 0.00 0.00 92 1018.9
20260906080518 20 0.0 1.6 0.00 0.00 0.00 92 1019.0
20260906075518 20 0.0 3.2 0.00 0.00 0.00 92 1019.0
20260906074518 20 0.0 1.6 0.00 0.00 0.00 92 1018.9
20260906073538 20 0.0 3.2 0.00 0.00 0.00 92 1018.9
20260906072517 20 0.0 3.2 0.00 0.00 0.00 91 1018.9
20260906071518 20 0.0 1.6 0.00 0.00 0.00 92 1019.0
20260906070517 21 0.0 1.6 0.00 0.00 0.00 91 1019.0
20260906065518 21 0.0 1.6 0.00 0.00 0.00 91 1019.1
20260906064517 21 0.0 0.0 0.00 0.00 0.00 91 1019.1
20260906063518 21 0.0 3.2 0.00 0.00 0.00 91 1019.1
20260906062517 21 0.0 6.4 0.00 0.00 0.00 91 1019.2
20260906061538 21 0.0 0.0 0.00 0.00 0.00 91 1019.2
20260906060518 21 0.0 0.0 0.00 0.00 0.00 90 1019.3
20260906055517 21 0.0 0.0 0.00 0.00 0.00 90 1019.5
20260906054537 21 0.0 1.6 0.00 0.00 0.00 90 1019.4
20260906053518 21 0.0 0.0 0.00 0.00 0.00 90 1019.4
20260906052518 21 0.0 0.0 0.00 0.00 0.00 90 1019.5
20260906051537 21 0.0 0.0 0.00 0.00 0.00 90 1019.6
20260906050517 21 0.0 1.6 0.00 0.00 0.00 90 1019.3
20260906045537 21 0.0 1.6 0.00 0.00 0.00 91 1019.3
20260906044537 21 0.0 0.0 0.00 0.00 0.00 90 1019.3
20260906043517 21 0.0 0.0 0.00 0.00 0.00 90 1019.2
20260906042557 21 0.0 0.0 0.00 0.00 0.00 90 1019.2
20260906041517 21 0.0 0.0 0.00 0.00 0.00 90 1019.2
20260906040517 21 0.0 0.0 0.00 0.00 0.00 90 1019.1
20260906035517 22 0.0 0.0 0.00 0.00 0.00 90 1019.2
20260906034517 21 0.0 0.0 0.00 0.00 0.00 91 1019.2
20260906033517 22 0.0 0.0 0.00 0.00 0.00 90 1019.2
20260906032517 22 0.0 0.0 0.00 0.00 0.00 90 1019.2
20260906031517 22 0.0 0.0 0.00 0.00 0.00 90 1019.1
20260906030517 22 0.0 0.0 0.00 0.00 0.00 90 1019.1
20260906025517 22 0.0 0.0 0.00 0.00 0.00 90 1019.0
20260906024517 22 0.0 0.0 0.00 0.00 0.00 90 1019.0
20260906023517 22 0.0 0.0 0.00 0.00 0.00 89 1018.8
20260906022517 22 0.0 0.0 0.00 0.00 0.00 89 1018.5
20260906021517 22 0.0 1.6 0.00 0.00 0.00 89 1018.3
20260906020557 22 0.0 0.0 0.00 0.00 0.00 88 1018.1
20260906015517 22 0.0 0.0 0.00 0.00 0.00 88 1017.9
20260906014517 22 0.0 0.0 0.00 0.00 0.00 88 1017.9
20260906013517 23 0.0 0.0 0.00 0.00 0.00 88 1017.8
20260906012517 23 0.0 3.2 0.00 0.00 0.00 87 1017.6
20260906011537 23 0.0 1.6 0.00 0.00 0.00 87 1017.5
20260906010557 23 0.0 1.6 0.00 0.00 0.00 87 1017.4
20260906005537 23 0.0 1.6 0.00 0.00 0.00 88 1017.5
20260906004517 23 0.0 0.0 0.00 0.00 0.00 87 1017.3
20260906003517 23 0.0 0.0 0.00 0.00 0.00 87 1017.1
20260906002517 23 0.0 0.0 0.00 0.00 0.00 87 1017.2
20260906001517 23 0.0 0.0 0.00 0.00 0.00 86 1017.2
20260906000517 24 0.0 0.0 0.00 0.00 0.00 85 1017.4
20260905235517 24 0.0 1.6 0.00 0.00 0.00 85 1017.3
20260905234517 24 0.0 3.2 0.00 0.00 0.00 85 1017.3
20260905233517 24 0.0 0.0 0.00 0.00 0.00 85 1017.1
20260905232517 24 0.0 4.8 0.00 0.00 0.00 84 1017.1
20260905231517 24 90 1.6 4.8 0.00 0.00 0.00 84 1017.0
20260905230517 24 0.0 4.8 0.00 0.00 0.00 84 1017.0
20260905225517 25 0.0 1.6 0.00 0.00 0.00 83 1017.0
20260905224517 25 113 1.6 6.4 0.00 0.00 0.00 84 1016.8
20260905223517 25 113 3.2 6.4 0.00 0.00 0.00 84 1016.6
20260905222517 25 113 1.6 8.0 0.00 0.00 0.00 84 1016.6
20260905221517 25 113 1.6 8.0 0.00 0.00 0.00 84 1016.6
20260905220516 25 113 1.6 6.4 0.00 0.00 0.00 84 1016.7
20260905215517 25 113 1.6 6.4 0.00 0.00 0.00 83 1016.7
20260905214517 25 0.0 4.8 0.00 0.00 0.00 84 1016.7
20260905213517 25 113 1.6 6.4 0.00 0.00 0.00 83 1016.7
20260905212557 25 113 1.6 4.8 0.00 0.00 0.00 83 1016.8
20260905211516 25 90 1.6 6.4 0.00 0.00 0.00 83 1017.1
20260905210516 26 113 1.6 6.4 0.00 0.00 0.00 82 1017.1
20260905205557 26 0.0 3.2 0.00 0.00 0.00 83 1017.2
20260905204516 26 90 1.6 4.8 0.00 0.00 0.00 83 1017.3
20260905203517 26 90 1.6 8.0 0.00 0.00 0.00 83 1017.4
20260905202517 26 90 1.6 3.2 0.00 0.00 0.00 83 1017.7
20260905201517 26 68 1.6 3.2 0.00 0.00 0.00 82 1017.8
20260905200516 26 0.0 3.2 0.00 0.00 0.00 82 1018.0
20260905195557 26 0.0 4.8 0.00 0.00 0.00 82 1018.3
20260905194536 25 0.0 3.2 0.00 0.00 0.00 83 1018.3
20260905193516 25 0.0 1.6 0.00 0.00 0.00 83 1018.4
20260905192536 25 0.0 3.2 0.00 0.00 0.00 84 1018.6
20260905191517 25 0.0 1.6 0.00 0.00 0.00 85 1018.5
20260905190516 25 0.0 1.6 0.00 0.00 0.00 84 1018.6
20260905185556 25 0.0 0.0 0.00 0.00 0.00 84 1018.8
20260905184517 25 0.0 3.2 0.00 0.00 0.00 84 1018.7
20260905183516 25 0.0 3.2 0.00 0.00 0.00 84 1018.5
20260905182516 25 90 1.6 4.8 0.00 0.00 0.00 83 1018.8
20260905181516 25 0.0 1.6 0.00 0.00 0.00 85 1019.0
20260905180518 24 0.0 3.2 0.00 0.00 0.00 85 1019.1
20260905175518 24 0.0 1.6 0.00 0.00 0.00 85 1019.1
20260905174538 25 0.0 3.2 0.00 0.00 0.00 86 1019.2
20260905173518 24 0.0 1.6 0.00 0.00 0.00 86 1019.5
20260905172518 24 0.0 1.6 0.00 0.00 0.00 87 1019.5
20260905171518 23 0.0 3.2 0.00 0.00 0.00 87 1019.6
20260905170518 23 0.0 1.6 0.00 0.00 0.00 87 1019.7
20260905165518 23 0.0 1.6 0.00 0.00 0.00 87 1019.6
20260905164518 23 0.0 4.8 0.00 0.00 0.00 88 1019.3
20260905163518 23 0.0 4.8 0.00 0.00 0.00 88 1019.3
20260905162518 23 0.0 1.6 0.00 0.00 0.00 88 1019.2
20260905161518 23 0.0 1.6 0.00 0.00 0.00 89 1019.2
20260905160518 23 0.0 3.2 0.00 0.00 0.00 89 1019.2
20260905155518 23 0.0 1.6 0.00 0.00 0.00 89 1019.3
20260905154518 23 0.0 1.6 0.00 0.00 0.00 90 1019.2
20260905153518 22 0.0 1.6 0.00 0.00 0.00 90 1019.1
20260905152518 22 0.0 3.2 0.00 0.00 0.00 91 1019.0
20260905151518 22 0.0 3.2 0.00 0.00 0.00 91 1019.0
20260905150518 22 0.0 1.6 0.00 0.00 0.00 92 1018.9